Regional Weather Roundup
Issued by NWS

Home | Current Version | Previous Version | Graphics & Text | Print | Product List | Glossary On
Versions: 1 2 3 4 5 6 7 8 9 10 11 12 13 14 15 16 17 18 19 20 21 22 23 24 25 26 27 28
000
ASUS45 KTFX 290910
RWRMT
MONTANA REGIONAL WEATHER ROUNDUP
NATIONAL WEATHER SERVICE GREAT FALLS MT
300 AM MDT FRI APR 29 2016

NOTE: "FAIR" INDICATES FEW OR NO CLOUDS BELOW 12000 FEET WITH NO
SIGNIFICANT WEATHER AND/OR OBSTRUCTIONS TO VISIBILITY.

MTZ001>007-043-291000-
WEST OF THE DIVIDE

CITY           SKY/WX    TMP DP  RH WIND       PRES   REMARKS
KALISPELL      CLOUDY    43  35  73 NW3       29.96F
MISSOULA       PTCLDY    34  31  88 W3        29.98F
BUTTE          CLOUDY    33  26  75 S7        29.95F WCI  27
MULLAN PASS    PTCLDY    30  27  88 CALM      29.93F
ANACONDA         N/A     34  28  80 CALM      29.96F
DEER LODGE       N/A     30  27  86 NW3       29.98S
EUREKA           N/A     39  34  81 CALM      30.00F
HAMILTON         N/A     37  36  93 CALM      29.95F
LIBBY            N/A     37  34  87 CALM      30.00S
PLAINS           N/A     38  32  79 CALM      29.98F
$$

MTZ008-052>055-291000-
SOUTHWEST MONTANA

CITY           SKY/WX    TMP DP  RH WIND       PRES   REMARKS
BOZEMAN        CLOUDY    35  28  75 NW5       29.98F
DILLON         CLOUDY    35  26  69 NE10      29.93F WCI  27
ENNIS          CLOUDY    34  30  86 CALM      30.00S
THREE FORKS      N/A     34  34 100 CALM      29.98S
TWIN BRIDGES     N/A     36  23  59 N13       29.94F WCI  27
$$

MTZ009-010-012-014-046-048-049-054-291000-
EAST SLOPES AND CENTRAL MONTANA

CITY           SKY/WX    TMP DP  RH WIND       PRES   REMARKS
CUT BANK       CLOUDY    36  34  92 NE5       30.02F
GREAT FALLS    CLOUDY    37  33  85 E6        29.99F
HELENA         CLOUDY    39  32  76 W5        29.98F
CHOTEAU          N/A     36  36 100 NE5       30.01F
CONRAD           N/A     37  37 100 E2        30.04F
$$

MTZ011-013-016-021-045-047-050-051-291000-
NORTH CENTRAL MONTANA

CITY           SKY/WX    TMP DP  RH WIND       PRES   REMARKS
HAVRE          CLOUDY    41  37  86 NE5       30.06F
LEWISTOWN      CLOUDY    36  31  82 SE5       30.02F
N BAR RANCH    CLOUDY    32  32 100 CALM      30.05F FOG
CHINOOK          N/A     41  37  87 E6        30.09S
$$

MTZ017>020-022>027-061-062-291000-
NORTHEAST MONTANA

CITY           SKY/WX    TMP DP  RH WIND       PRES   REMARKS
GLASGOW        CLOUDY    38  34  85 NE9       30.12F WCI  31
JORDAN           N/A     40  37  89 E7        30.10S
SIDNEY         CLOUDY    41  32  70 N3        30.15S
WOLF POINT     CLOUDY    40  35  83 CALM      30.14F
PLENTYWOOD       N/A     37  21  52 NE7       30.15F
POPLAR           N/A     43  32  65 CALM      30.15S
SCOBEY           N/A     39  20  47 E6        30.11F
$$

MTZ028>42-056>058-291000-
SOUTHCENTRAL AND SOUTHEAST MONTANA

CITY           SKY/WX    TMP DP  RH WIND       PRES   REMARKS
BAKER          CLOUDY    38  34  85 CALM      30.13S
BILLINGS       CLOUDY    35  34  96 N7        30.03F WCI  29
LIVINGSTON     CLOUDY    34  29  82 E14       29.99F WCI  25
MILES CITY     CLOUDY    41  34  76 E6        30.11F
EKALAKA          N/A     35  30  82 E1        30.07F
FORSYTH          N/A     39  39 100 E5        30.09F
LAUREL           N/A     35  27  73 N3        30.01F
ROUNDUP          N/A     33  29  86 CALM      29.97S VSB 0
$$

REGIONAL REPORTS...DAKOTAS

CITY           SKY/WX    TMP DP  RH WIND       PRES   REMARKS
WILLISTON      CLOUDY    35  25  66 NE6       30.16S WCI  30
MINOT          CLOUDY    40  19  43 N3        30.19R
DICKINSON      PTCLDY    35  25  66 E7        30.12R WCI  29
BEACH          CLOUDY    37  37 100 W3        30.17R
CROSBY           N/A     32  19  59 E6        30.21S WCI  26
TIOGA            N/A     32  23  69 E8        30.23R WCI  25
WATFORD CITY     N/A     32  27  80 E7        30.16S WCI  26
BISMARCK       MOCLDY    37  31  78 CALM      30.17R
GRAND FORKS    CLOUDY    32  26  78 N5        30.18R
FARGO          CLOUDY    36  32  85 E5        30.15R
BUFFALO SD       N/A     38  35  89 CALM      30.05F
RAPID CITY     CLOUDY    36  34  92 NE5       30.10S
$$

REGIONAL REPORTS...WYOMING/IDAHO/WASHINGTON

CITY           SKY/WX    TMP DP  RH WIND       PRES   REMARKS
GILLETTE       CLOUDY    35  33  92 CALM      30.06F
SHERIDAN       CLOUDY    37  33  85 S7        30.05F WCI  32
BUFFALO WY       N/A    N/A N/A N/A MISG      30.04F
CODY           CLOUDY    34  30  86 CALM      30.00F
YELLOWSTONE LA   N/A     25  21  85 CALM      29.95F
IDAHO FALLS    CLOUDY    39  29  67 CALM      29.88F
SALMON         MOCLDY    36  32  87 CALM      29.93F
BOISE          CLOUDY    52  37  56 W12       29.89S
SPOKANE        LGT RAIN  49  39  68 SE5       29.96F
$$

REGIONAL REPORTS...ALBERTA

CITY           SKY/WX    TMP DP  RH WIND       PRES   REMARKS
EDMONTON       PTCLDY    46  28  49 SE12      29.95F
CALGARY        PTCLDY    39  28  65 S10       29.98F
LETHBRIDGE     CLEAR     30  30 100 SW7       30.02F WCI  23
MEDICINE HAT   MOCLDY    39  34  81 CALM      30.06F
WATERTON GATE    N/A     32  28  86 NE2         N/A
MILK RIVER       N/A     34  32  93 SW2         N/A
ONEFOUR          N/A     37  36  93 E6          N/A
$$

REGIONAL REPORTS...SASKATCHEWAN

CITY           SKY/WX    TMP DP  RH WIND       PRES   REMARKS
SWIFT CURRENT  CLEAR     32  23  69 S10       30.10F WCI  24
REGINA         PTCLDY    34  16  47 SE12      30.20S WCI  25
SASKATOON      PTCLDY    39  27  60 SE9       30.18S
CYPRESS HILLS    N/A     34  30  86 S2          N/A
VAL MARIE        N/A     30  28  93 NE6         N/A  WCI  24
ROCKGLEN         N/A     41  23  48 SE8         N/A
ASSINIBOIA       N/A     45  34  65 SE10        N/A
$$




USA.gov is the U.S. government's official web portal to all federal, state and local government web resources and services.